Tracking 30995 objects as of 7-Jul-2025
HD Live streaming from Space Station
objects crossing your sky now

STARLINK-4104

Track STARLINK-4104 now!
10-day predictions
STARLINK-4104 is classified as:


NORAD ID: 53163
Int'l Code: 2022-083AH
Perigee: 546.1 km
Apogee: 547.7 km
Inclination: 53.2 °
Period: 95.4 minutes
Semi major axis: 6917 km
RCS: Unknown
Launch date: July 17, 2022
Source: United States (US)
Launch site: AIR FORCE EASTERN TEST RANGE (AFETR)
Your satellite tracking list
ATLAS 5 CENTAUR DEB
Track 1 satellite(s)




NASA's NSSDC Master Catalog

Two Line Element Set (TLE):
1 53163U 22083AH  25187.29197730 -.00000333  00000-0 -28288-5 0  9998
2 53163  53.2157 190.3860 0001193  80.8472 279.2655 15.08840313164160
Source of the keplerian elements: AFSPC